Wisconsin Dells, Wisconsin, United States (53965)
Lat: 43.63N, Lon: 89.77W
Wx Zone: WIZ057
Local Info
Past Weather Observations for Monday, February 23, 2015

NOTE: This archive is for the closest National Weather Service station to Wisconsin Dells. Information may differ from the station used for current weather conditions.

Click here for Long-term Archive

Time Weather Temperature Dewpoint Humidity Pressure Winds Precip Visibility
23:50
Partly Cloudy
9°F / -13°C -4°F / -20°C 56% 30.06 in
(1018 mb)
SW 16.1 mph
(SW 26 kph)
- 10SM
23:30
Partly Cloudy
9°F / -13°C -4°F / -20°C 56% 30.06 in
(1018 mb)
SW 16.1 mph
(SW 26 kph)
- 10SM
23:10
Clear
9°F / -13°C -6°F / -21°C 51% 30.09 in
(1019 mb)
SW 15 mph
(SW 24 kph)
- 10SM
22:50
Partly Cloudy
9°F / -13°C -6°F / -21°C 51% 30.09 in
(1019 mb)
SW 17.3 mph
(SW 28 kph)
- 10SM
22:30
Clear
7°F / -14°C -6°F / -21°C 56% 30.12 in
(1020 mb)
SW 16.1 mph
(SW 26 kph)
- 10SM
22:10
Clear
7°F / -14°C -6°F / -21°C 56% 30.15 in
(1021 mb)
SW 16.1 mph
(SW 26 kph)
- 10SM
21:50
Partly Cloudy
7°F / -14°C -6°F / -21°C 56% 30.15 in
(1021 mb)
SW 13.8 mph
(SW 22 kph)
- 10SM
21:30
Partly Cloudy
7°F / -14°C -6°F / -21°C 56% 30.18 in
(1022 mb)
SW 13.8 mph
(SW 22 kph)
- 10SM
21:10
Partly Cloudy
7°F / -14°C -6°F / -21°C 56% 30.18 in
(1022 mb)
SW 17.3 mph
(SW 28 kph)
- 10SM
20:50
Clear
7°F / -14°C -6°F / -21°C 56% 30.18 in
(1022 mb)
SW 12.7 mph
(SW 20 kph)
- 10SM
20:30
Clear
7°F / -14°C -8°F / -22°C 51% 30.21 in
(1023 mb)
SW 13.8 mph
(SW 22 kph)
- 10SM
20:10
Clear
7°F / -14°C -8°F / -22°C 51% 30.21 in
(1023 mb)
SW 13.8 mph
(SW 22 kph)
- 10SM
19:50
Clear
7°F / -14°C -8°F / -22°C 51% 30.21 in
(1023 mb)
SW 15 mph
(SW 24 kph)
- 10SM
19:30
Clear
7°F / -14°C -8°F / -22°C 51% 30.24 in
(1024 mb)
SW 16.1 mph
(SW 26 kph)
- 10SM
19:10
Clear
7°F / -14°C -9°F / -23°C 47% 30.27 in
(1025 mb)
SW 12.7 mph
(SW 20 kph)
- 10SM
18:50
Clear
7°F / -14°C -9°F / -23°C 47% 30.27 in
(1025 mb)
SW 13.8 mph
(SW 22 kph)
- 10SM
18:30
Clear
5°F / -15°C -9°F / -23°C 51% 30.27 in
(1025 mb)
SW 11.5 mph
(SW 19 kph)
- 10SM
18:10
Clear
5°F / -15°C -9°F / -23°C 51% 30.3 in
(1026 mb)
SW 10.4 mph
(SW 17 kph)
- 10SM
17:50
Clear
7°F / -14°C -9°F / -23°C 47% 30.3 in
(1026 mb)
SW 11.5 mph
(SW 19 kph)
- 10SM
17:30
Clear
7°F / -14°C -9°F / -23°C 47% 30.33 in
(1027 mb)
SW 10.4 mph
(SW 17 kph)
- 10SM
17:10
Clear
9°F / -13°C -11°F / -24°C 39% 30.33 in
(1027 mb)
SW 11.5 mph
(SW 19 kph)
- 10SM
16:50
Clear
9°F / -13°C -13°F / -25°C 36% 30.36 in
(1028 mb)
SSW 12.7 mph
(SSW 20 kph)
- 10SM
16:30
Clear
9°F / -13°C -13°F / -25°C 36% 30.36 in
(1028 mb)
SSW 10.4 mph
(SSW 17 kph)
- 10SM
16:10
Clear
9°F / -13°C -11°F / -24°C 39% 30.39 in
(1029 mb)
SSW 11.5 mph
(SSW 19 kph)
- 10SM
15:50
Clear
9°F / -13°C -11°F / -24°C 39% 30.39 in
(1029 mb)
SSW 10.4 mph
(SSW 17 kph)
- 10SM
15:30
Clear
9°F / -13°C -11°F / -24°C 39% 30.42 in
(1030 mb)
SW 12.7 mph
(SW 20 kph)
- 10SM
15:10
Clear
9°F / -13°C -11°F / -24°C 39% 30.45 in
(1031 mb)
SSW 10.4 mph
(SSW 17 kph)
- 10SM
14:50
Clear
9°F / -13°C -11°F / -24°C 39% 30.45 in
(1031 mb)
SSW 10.4 mph
(SSW 17 kph)
- 10SM
14:30
Clear
9°F / -13°C -11°F / -24°C 39% 30.48 in
(1032 mb)
SSW 12.7 mph
(SSW 20 kph)
- 10SM
14:10
Clear
7°F / -14°C -11°F / -24°C 43% 30.48 in
(1032 mb)
W 10.4 mph
(W 17 kph)
- 10SM
13:50
Clear
7°F / -14°C -13°F / -25°C 39% 30.51 in
(1033 mb)
SSW 12.7 mph
(SSW 20 kph)
- 10SM
13:30
Clear
7°F / -14°C -13°F / -25°C 39% 30.54 in
(1034 mb)
SW 10.4 mph
(SW 17 kph)
- 10SM
13:10
Clear
7°F / -14°C -11°F / -24°C 43% 30.54 in
(1034 mb)
SW 10.4 mph
(SW 17 kph)
- 10SM
12:50
Clear
5°F / -15°C -13°F / -25°C 42% 30.57 in
(1035 mb)
SSW 11.5 mph
(SSW 19 kph)
- 10SM
12:30
Clear
5°F / -15°C -15°F / -26°C 39% 30.57 in
(1035 mb)
SSW 9.2 mph
(SSW 15 kph)
- 10SM
12:10
Clear
5°F / -15°C -13°F / -25°C 42% 30.57 in
(1035 mb)
SW 9.2 mph
(SW 15 kph)
- 10SM
11:50
Clear
3°F / -16°C -15°F / -26°C 42% 30.6 in
(1036 mb)
SSW 9.2 mph
(SSW 15 kph)
- 10SM
11:30
Clear
3°F / -16°C -15°F / -26°C 42% 30.6 in
(1036 mb)
SSW 9.2 mph
(SSW 15 kph)
- 10SM
11:10
Clear
1°F / -17°C -15°F / -26°C 46% 30.63 in
(1037 mb)
W 5.8 mph
(W 9 kph)
- 10SM
10:50
Clear
1°F / -17°C -15°F / -26°C 46% 30.63 in
(1037 mb)
SSW 6.9 mph
(SSW 11 kph)
- 10SM
10:30
Clear
°F / -18°C -17°F / -27°C 45% 30.66 in
(1038 mb)
SSW 6.9 mph
(SSW 11 kph)
- 10SM
10:10
Clear
-2°F / -19°C -17°F / -27°C 49% 30.66 in
(1038 mb)
SW 6.9 mph
(SW 11 kph)
- 10SM
09:50
Clear
-2°F / -19°C -17°F / -27°C 49% 30.66 in
(1038 mb)
W 3.5 mph
(W 6 kph)
- 10SM
09:30
Clear
-4°F / -20°C -18°F / -28°C 49% 30.66 in
(1038 mb)
SSW 6.9 mph
(SSW 11 kph)
- 10SM
09:10
Clear
-4°F / -20°C -18°F / -28°C 49% 30.66 in
(1038 mb)
SSW 4.6 mph
(SSW 7 kph)
- 10SM
08:50
Clear
-6°F / -21°C -18°F / -28°C 54% 30.66 in
(1038 mb)
W 5.8 mph
(W 9 kph)
- 10SM
08:30
Clear
-6°F / -21°C -18°F / -28°C 54% 30.69 in
(1039 mb)
SSW 5.8 mph
(SSW 9 kph)
- 10SM
08:10
Clear
-8°F / -22°C -18°F / -28°C 58% 30.69 in
(1039 mb)
SSW 4.6 mph
(SSW 7 kph)
- 10SM
07:50
Clear
-11°F / -24°C -20°F / -29°C 63% 30.69 in
(1039 mb)
Calm - 10SM
07:30
Clear
-13°F / -25°C -22°F / -30°C 63% 30.69 in
(1039 mb)
Calm - 10SM
07:10
Clear
-17°F / -27°C -24°F / -31°C 69% 30.69 in
(1039 mb)
Calm - 10SM
06:50
Clear
-15°F / -26°C -22°F / -30°C 69% 30.69 in
(1039 mb)
Calm - 10SM
06:30
Clear
-15°F / -26°C -22°F / -30°C 69% 30.69 in
(1039 mb)
Calm - 10SM
06:10
Clear
-15°F / -26°C -22°F / -30°C 69% 30.69 in
(1039 mb)
Calm - 10SM
05:50
Clear
-15°F / -26°C -22°F / -30°C 69% 30.69 in
(1039 mb)
Calm - 10SM
05:30
Clear
-15°F / -26°C -22°F / -30°C 69% 30.69 in
(1039 mb)
Calm - 10SM
05:10
Clear
-15°F / -26°C -22°F / -30°C 69% 30.69 in
(1039 mb)
Calm - 10SM
04:50
Clear
-15°F / -26°C -22°F / -30°C 69% 30.69 in
(1039 mb)
Calm - 10SM
04:30
Clear
-15°F / -26°C -22°F / -30°C 69% 30.69 in
(1039 mb)
Calm - 10SM
04:10
Clear
-13°F / -25°C -22°F / -30°C 63% 30.69 in
(1039 mb)
Calm - 10SM
03:50
Clear
-11°F / -24°C -20°F / -29°C 63% 30.69 in
(1039 mb)
Calm - 10SM
03:30
Clear
-11°F / -24°C -20°F / -29°C 63% 30.69 in
(1039 mb)
Calm - 10SM
03:10
Clear
-9°F / -23°C -20°F / -29°C 58% 30.69 in
(1039 mb)
Calm - 10SM
02:50
Clear
-9°F / -23°C -20°F / -29°C 58% 30.69 in
(1039 mb)
Calm - 10SM
02:30
Clear
-8°F / -22°C -20°F / -29°C 53% 30.69 in
(1039 mb)
WNW 4.6 mph
(WNW 7 kph)
- 10SM
02:10
Clear
-8°F / -22°C -20°F / -29°C 53% 30.71 in
(1040 mb)
WNW 4.6 mph
(WNW 7 kph)
- 10SM
01:50
Clear
-11°F / -24°C -20°F / -29°C 63% 30.71 in
(1040 mb)
Calm - 10SM
01:30
Clear
-8°F / -22°C -18°F / -28°C 58% 30.71 in
(1040 mb)
Calm - 10SM
01:10
Clear
-8°F / -22°C -18°F / -28°C 58% 30.69 in
(1039 mb)
NW 3.5 mph
(NW 6 kph)
- 10SM
00:50
Clear
-8°F / -22°C -18°F / -28°C 58% 30.69 in
(1039 mb)
Calm - 10SM
00:30
Clear
-8°F / -22°C -18°F / -28°C 58% 30.69 in
(1039 mb)
NW 4.6 mph
(NW 7 kph)
- 10SM
00:10
Clear
-6°F / -21°C -18°F / -28°C 54% 30.69 in
(1039 mb)
Calm - 10SM
Time Weather Temperature Dewpoint Humidity Pressure Winds Precip Visibility


Weather for websites

WeatherForYou.com, LLC is not responsible for any damages or problems caused by this service. Current weather conditions are obtained from the closest station including government and personal stations which may have varying degrees of accuracy. Weather forecasts are derived from the NOAA NDFD. Like all things, this site belongs to Jesus Christ... He just trusts me to maintain it. If you have any questions or comments email webmaster@weatherforyou.com

Copyright © 2015, WeatherForYou.com LLC. All rights reserved.